Miscellaneous Local Product
Issued by NWS Hastings, NE

Home | Current Version | Previous Version | Text Only | Print | Product List | Glossary Off
Versions: 1 2 3 4 5 6 7 8 9 10 11 12 13 14 15 16 17 18 19 20 21 22 23 24 25 26 27 28 29 30 31 32 33 34 35 36 37 38 39 40 41 42 43 44 45 46 47 48 49 50

000
AXUS43 KGID 231302
MISGRI

GID CWA HOURLY WEATHER ROUNDUP
NATIONAL WEATHER SERVICE HASTINGS NE
800 AM CDT MON APR 23 2018

NOTE: "FAIR" INDICATES FEW OR NO CLOUDS BELOW 12,000 FEET WITH NO
SIGNIFICANT WEATHER AND/OR OBSTRUCTIONS TO VISIBILITY.

...SOUTH CENTRAL NEBRASKA...

CITY           SKY/WX    TMP DP  RH WIND       PRES   REMARKS
GRAND ISLAND   SUNNY     46  39  76 NE6       30.20R
KEARNEY        SUNNY     42  38  85 NW3       30.20R
HASTINGS       SUNNY     44  40  85 CALM      30.19R
ORD            MOSUNNY   36  34  92 CALM      30.19R
YORK             N/A     41  36  81 CALM      30.19S
AURORA         SUNNY     43  34  70 W3        30.19R
LEXINGTON      MOSUNNY   40  38  91 CALM      30.19R FOG
HOLDREGE       SUNNY     40  39  97 CALM      30.19R FOG
HEBRON         SUNNY     42  36  80 CALM      30.19R

...NEBRASKA PANHANDLE...

CITY           SKY/WX    TMP DP  RH WIND       PRES   REMARKS
CHADRON        SUNNY     41  37  86 CALM      30.09R
ALLIANCE       SUNNY     35  35 100 SE7       30.11R WCI  29
SCOTTSBLUFF    CLEAR     38  36  92 E12       30.10S WCI  30
SIDNEY         SUNNY     39  33  79 S8        30.11S WCI  33

...WESTERN AND NORTH CENTRAL NEBRASKA...

CITY           SKY/WX    TMP DP  RH WIND       PRES   REMARKS
VALENTINE      MOSUNNY   39  37  92 CALM      30.16S
AINSWORTH      SUNNY     41  39  95 S6        30.17S
ONEILL         MOSUNNY   44  40  83 CALM      30.19S
BROKEN BOW     MOSUNNY   38  36  92 CALM      30.18R
IMPERIAL       SUNNY     38  37  97 S6        30.17R WCI  33
NORTH PLATTE   SUNNY     35  33  92 SE5       30.17S FOG     WCI  31
MCCOOK         SUNNY     35  34  96 CALM      30.18R FOG

...EASTERN NEBRASKA...

CITY           SKY/WX    TMP DP  RH WIND       PRES   REMARKS
NORFOLK        SUNNY     41  35  79 NW5       30.20R
SO SIOUX CITY  SUNNY     40  38  93 CALM      30.22R
TEKAMAH        SUNNY     40  37  89 N7        30.21R
COLUMBUS       SUNNY     43  33  68 E3        30.20S
ALBION         SUNNY     41  36  81 CALM      30.20S
OMAHA EPPLEY   MOSUNNY   42  31  64 N7        30.20R
OFFUTT AFB     SUNNY     44  33  64 N5        30.19R
MILLARD        SUNNY     47  35  64 W3        30.20S
LINCOLN        SUNNY     41  33  73 N6        30.21R
NEBRASKA CITY  SUNNY     49  33  53 N3        30.19R
BEATRICE       SUNNY     44  37  74 CALM      30.18S
FALLS CITY     PTSUNNY   43  33  68 NW6       30.16R

...NORTHERN KANSAS...

CITY           SKY/WX    TMP DP  RH WIND       PRES   REMARKS
GOODLAND       SUNNY     38  35  89 S5        30.16R WCI  34
HILL CITY      SUNNY     41  38  89 CALM      30.19R FOG
NORTON         SUNNY     39  37  93 CALM      30.18R
PHILLIPSBURG   SUNNY     43  39  87 CALM      30.20R
SMITH CENTER   SUNNY     43  39  87 N5        30.19R
BELOIT         SUNNY     43  37  81 CALM      30.18R
HAYS           SUNNY     46  40  79 NW6       30.18S
RUSSELL        SUNNY     48  43  82 NW9       30.17R
CONCORDIA      SUNNY     46  41  82 CALM      30.17R
SALINA         MOSUNNY   47  42  83 NW6       30.17R
TOPEKA         CLOUDY    52  36  54 NW6       30.14R



USA.gov is the U.S. government's official web portal to all federal, state and local government web resources and services.